Weather observations for the past three days for
Concordia, Blosser Municipal Airport
Imperial (Metric)
Date Time (cdt) Wind (mph) Vis. (mi.) Weather Sky Cond. Temperature (ºF) Relative Humidity Wind Chill (°F) Heat Index (°F) Pressure Precipitation (in)
Air Dwpt 6 hour altimeter (in) sea level (mb) 1 hr 3 hr 6 hr
Max. Min.
24 10:55 W 7 10.00 Fair CLR 86 64.9 49% 88 30.15 1019.3
24 09:55 W 8 10.00 Fair CLR 82 64.9 56% 84 30.14 1019.3
24 08:55 W 6 10.00 Fair CLR 78.1 64 62% 80 30.15 1019.3
24 07:55 SW 5 10.00 Fair CLR 73 64 74% 30.14 1019.0
24 06:55 Calm 10.00 Fair CLR 66 62.1 73.9 66 87% 30.12 1018.5
24 05:55 Calm 10.00 Fair CLR 68 63 84% 30.12 1018.4
24 04:55 S 10 10.00 Fair CLR 71.1 64 79% 30.1 1017.6
24 03:55 S 12 10.00 Fair CLR 72 64 76% 30.09 1017.2
24 02:55 S 12 10.00 Fair CLR 72 64 76% 30.09 1017.2
24 01:55 S 10 10.00 Fair CLR 73 63 71% 30.1 1017.5
24 00:55 S 9 10.00 Fair CLR 71.1 64 88 70 79% 30.1 1017.7
23 23:55 SE 7 10.00 Fair CLR 72 64.9 79% 30.1 1017.6
23 22:55 SE 8 10.00 Fair CLR 71.1 64.9 81% 30.09 1017.6
23 21:55 SE 7 8.00 Fair CLR 72 64 76% 30.08 1017.2
23 20:55 SE 5 10.00 Fair CLR 75.9 64.9 69% 78 30.07 1016.8
23 19:55 E 6 10.00 Fair CLR 82.9 64 53% 84 30.05 1016.4
23 18:55 NE 5 10.00 A Few Clouds FEW070 88 62.1 90 82.9 42% 88 30.05 1016.0
23 17:55 E 6 10.00 Fair CLR 89.1 61 39% 89 30.04 1015.9
23 16:55 Calm 10.00 Fair CLR 87.1 62.1 43% 88 30.05 1016.2
23 15:55 E 8 10.00 Partly Cloudy FEW065 SCT085 88 64 45% 89 30.06 1016.3
23 14:55 Vrbl 5 10.00 Mostly Cloudy SCT060 BKN080 88 63 43% 89 30.06 1016.6
23 13:55 E 6 10.00 Partly Cloudy SCT055 SCT070 86 63 46% 87 30.07 1016.9
23 12:55 W 5 10.00 Fair CLR 84 62.1 87.1 61 48% 85 30.09 1017.3
23 11:55 Calm 10.00 Fair CLR 84.9 62.1 46% 85 30.1 1017.7
23 10:55 Calm 10.00 Fair CLR 80.1 64 58% 82 30.1 1017.8
23 09:55 SE 3 10.00 Fair CLR 75 66 74% 76 30.09 1017.7
23 08:55 Calm 10.00 Fair CLR 70 66 87% 30.09 1017.8
23 07:55 Calm 3.00 Fog/Mist CLR 64 63 96% 30.08 1017.6
23 06:55 Calm 4.00 Fog/Mist CLR 61 60.1 66 61 97% 30.07 1017.2
23 05:55 W 3 6.00 Fog/Mist CLR 62.1 61 96% 30.07 1017.0
23 04:55 N 3 5.00 Fog/Mist CLR 63 63 100% 30.06 1016.7
23 03:55 Calm 7.00 Fair CLR 63 62.1 97% 30.06 1016.6
23 02:55 W 5 10.00 Fair CLR 64 62.1 93% 30.07 1017.0
23 01:55 Calm 10.00 Fair CLR 64.9 63 93% 30.06 1017.0
23 00:55 Calm 10.00 Fair CLR 66 63 81 64.9 90% 30.07 1016.8
22 23:55 Calm 10.00 Fair CLR 66.9 63 87% 30.07 1016.9
22 22:55 SE 3 10.00 Fair CLR 66 63 90% 30.07 1016.7
22 21:55 Calm 10.00 Fair CLR 71.1 64 79% 30.05 1016.2
22 20:55 E 3 10.00 A Few Clouds FEW120 72 64 76% 30.04 1015.8
22 18:55 SE 5 10.00 Fair CLR 81 64 82 71.1 57% 83 30.03 1015.5 0.02
22 17:55 S 6 10.00 Mostly Cloudy BKN110 81 63 54% 82 30.01 1015.1
22 16:55 SE 6 10.00 Mostly Cloudy BKN110 80.1 63 56% 81 30.03 1015.6
22 15:55 S 8 10.00 Partly Cloudy SCT120 79 66 65% 81 30.05 1016.2 0.02
22 14:55 S 5 10.00 Fair CLR 79 66.9 67% 81 30.07 1016.8
22 13:55 W 6 10.00 Thunderstorm FEW033 SCT075 BKN100 72 69.1 91% 30.08 1017.7 0.02
22 12:55 E 7 10.00 Mostly Cloudy SCT043 SCT050 BKN090 81 63 82.9 63 54% 82 30.08 1017.3
22 11:55 Calm 10.00 A Few Clouds FEW065 82.9 63 51% 84 30.1 1017.8
22 10:55 Vrbl 3 10.00 Fair CLR 79 61 54% 80 30.12 1018.4
22 09:55 SW 6 10.00 Mostly Cloudy BKN070 75.9 63 64% 78 30.12 1018.6
22 08:55 S 3 10.00 Overcast OVC065 73 64 74% 30.12 1018.6
22 07:55 Calm 4.00 Fog/Mist CLR 66 63 90% 30.11 1018.2
22 06:55 Calm 10.00 Fair CLR 62.1 60.1 66.9 61 93% 30.1 1018.0
22 05:55 Calm 6.00 Fog/Mist CLR 62.1 61 96% 30.09 1017.7
22 04:55 Calm 9.00 Fair CLR 61 60.1 97% 30.08 1017.4
22 03:55 Calm 10.00 Fair CLR 64.9 61 87% 30.1 1017.9
22 02:55 SE 3 10.00 Fair CLR 64.9 61 87% 30.11 1018.3
22 01:55 S 8 10.00 Fair CLR 66 62.1 87% 30.11 1018.1
22 00:55 S 5 10.00 Fair CLR 66 62.1 81 64.9 87% 30.12 1018.5
21 23:55 S 5 10.00 Fair CLR 69.1 63 81% 30.13 1018.8
21 22:55 SE 3 10.00 Fair CLR 70 63 79% 30.13 1018.9
21 21:55 SE 3 9.00 Fair CLR 70 64 82% 30.11 1018.4
21 20:55 E 7 10.00 Fair CLR 75 63 66% 77 30.1 1017.8
21 19:55 E 7 10.00 A Few Clouds FEW100 79 63 58% 81 30.09 1017.6
21 18:55 E 8 10.00 Mostly Cloudy BKN100 81 62.1 84 78.1 53% 82 30.08 1017.3
21 17:55 NE 8 10.00 Mostly Cloudy BKN095 82.9 62.1 49% 84 30.08 1017.3
21 16:55 E 8 10.00 A Few Clouds FEW044 FEW055 82.9 63 51% 84 30.09 1017.6
21 15:55 NE 9 10.00 Mostly Cloudy SCT043 BKN060 BKN100 81 63 54% 82 30.11 1018.3
21 14:55 NE 6 10.00 Partly Cloudy FEW042 SCT070 SCT100 80.1 63 56% 81 30.13 1019.0
21 13:55 Vrbl 6 10.00 Mostly Cloudy BKN039 BKN047 80.1 62.1 54% 81 30.14 1019.6
21 12:55 Vrbl 5 10.00 Mostly Cloudy BKN039 79 63 81 64.9 58% 81 30.16 1020.2
21 11:55 Calm 10.00 Mostly Cloudy SCT034 BKN045 77 62.1 60% 79 30.17 1020.4
Date Time (cdt) Wind (mph) Vis. (mi.) Weather Sky Cond. Air Dwpt Max. Min. Relative Humidity Wind Chill (°F) Heat Index (°F) altimeter (in) sea level (mb) 1 hr 3 hr 6 hr
6 hour
Temperature (ºF) Pressure Precipitation (in)